Time,TemperatureF,DewpointF,PressureIn,WindDirection,WindDirectionDegrees,WindSpeedMPH,WindSpeedGustMPH,Humidity,HourlyPrecipIn,Conditions,Clouds,dailyrainin,SoftwareType,DateUTC
2013-06-12 00:00:00,31.8,15.7,-100.00,SE,133,0.0,0.0,51,0.00,n/a,n/a,-99.99,Henriksen +1-Wire,2013-06-12 04:00:00,
2013-06-12 00:10:00,31.8,15.7,-100.00,SE,134,0.0,0.0,51,0.00,n/a,n/a,-99.99,Henriksen +1-Wire,2013-06-12 04:10:00,
2013-06-12 00:20:00,31.8,15.7,-100.00,ESE,114,0.0,0.0,51,0.00,n/a,n/a,-99.99,Henriksen +1-Wire,2013-06-12 04:20:00,
2013-06-12 00:30:00,31.8,15.7,-100.00,SE,134,0.0,0.0,51,0.00,n/a,n/a,-99.99,Henriksen +1-Wire,2013-06-12 04:30:00,
2013-06-12 00:40:00,31.8,15.7,-100.00,SSE,168,0.0,0.0,51,0.00,n/a,n/a,-99.99,Henriksen +1-Wire,2013-06-12 04:40:00,
2013-06-12 00:50:00,31.8,15.7,-100.00,South,178,0.0,0.0,51,0.00,n/a,n/a,-99.99,Henriksen +1-Wire,2013-06-12 04:50:00,
2013-06-12 01:00:00,31.8,15.7,-100.00,South,179,0.0,0.0,51,0.00,n/a,n/a,-99.99,Henriksen +1-Wire,2013-06-12 05:00:00,
2013-06-12 01:10:00,31.8,15.7,-100.00,South,179,0.0,0.0,51,0.00,n/a,n/a,-99.99,Henriksen +1-Wire,2013-06-12 05:10:00,
2013-06-12 01:20:00,31.8,15.7,-100.00,South,179,0.0,0.0,51,0.00,n/a,n/a,-99.99,Henriksen +1-Wire,2013-06-12 05:20:00,
2013-06-12 01:30:00,31.8,15.7,-100.00,South,187,0.0,1.0,51,0.00,n/a,n/a,-99.99,Henriksen +1-Wire,2013-06-12 05:30:00,
2013-06-12 01:40:00,31.8,15.7,-100.00,WSW,244,0.0,1.0,51,0.00,n/a,n/a,-99.99,Henriksen +1-Wire,2013-06-12 05:40:00,
2013-06-12 01:50:00,31.8,15.7,-100.00,WSW,245,0.0,0.0,51,0.00,n/a,n/a,-99.99,Henriksen +1-Wire,2013-06-12 05:50:00,
2013-06-12 02:00:00,31.8,15.7,-100.00,WSW,245,0.0,0.0,51,0.00,n/a,n/a,-99.99,Henriksen +1-Wire,2013-06-12 06:00:00,
2013-06-12 02:10:00,31.8,15.7,-100.00,NE,45,0.0,1.0,51,0.00,n/a,n/a,-99.99,Henriksen +1-Wire,2013-06-12 06:10:00,
2013-06-12 02:20:00,31.8,15.7,-100.00,NE,45,0.0,1.0,51,0.00,n/a,n/a,-99.99,Henriksen +1-Wire,2013-06-12 06:20:00,
2013-06-12 02:30:00,31.8,15.7,-100.00,NE,45,0.0,0.0,51,0.00,n/a,n/a,-99.99,Henriksen +1-Wire,2013-06-12 06:30:00,
2013-06-12 02:40:00,31.8,15.7,-100.00,NE,45,0.0,0.0,51,0.00,n/a,n/a,-99.99,Henriksen +1-Wire,2013-06-12 06:40:00,
2013-06-12 02:50:00,31.8,15.7,-100.00,NE,45,0.0,0.0,51,0.00,n/a,n/a,-99.99,Henriksen +1-Wire,2013-06-12 06:50:00,
2013-06-12 03:00:00,31.8,15.7,-100.00,NE,45,0.0,0.0,51,0.00,n/a,n/a,-99.99,Henriksen +1-Wire,2013-06-12 07:00:00,
2013-06-12 03:10:00,31.8,15.7,-100.00,NE,45,0.0,0.0,51,0.00,n/a,n/a,-99.99,Henriksen +1-Wire,2013-06-12 07:10:00,
2013-06-12 03:20:00,31.8,15.7,-100.00,NE,45,0.0,0.0,51,0.00,n/a,n/a,-99.99,Henriksen +1-Wire,2013-06-12 07:20:00,
2013-06-12 03:30:00,31.8,15.7,-100.00,NE,45,0.0,1.0,51,0.00,n/a,n/a,-99.99,Henriksen +1-Wire,2013-06-12 07:30:00,
2013-06-12 03:40:00,31.8,15.7,-100.00,NE,45,0.0,0.0,51,0.00,n/a,n/a,-99.99,Henriksen +1-Wire,2013-06-12 07:40:00,
2013-06-12 03:50:00,31.8,15.7,-100.00,NE,45,0.0,1.0,51,0.00,n/a,n/a,-99.99,Henriksen +1-Wire,2013-06-12 07:50:00,
2013-06-12 04:00:00,31.8,15.7,-100.00,NE,45,0.0,1.0,51,0.00,n/a,n/a,-99.99,Henriksen +1-Wire,2013-06-12 08:00:00,
2013-06-12 04:10:00,31.8,15.7,-100.00,NE,45,0.0,0.0,51,0.00,n/a,n/a,-99.99,Henriksen +1-Wire,2013-06-12 08:10:00,
2013-06-12 04:20:00,31.8,15.7,-100.00,NE,45,0.0,0.0,51,0.00,n/a,n/a,-99.99,Henriksen +1-Wire,2013-06-12 08:20:00,
2013-06-12 04:30:00,31.8,15.7,-100.00,NE,45,0.0,1.0,51,0.00,n/a,n/a,-99.99,Henriksen +1-Wire,2013-06-12 08:30:00,
2013-06-12 04:40:00,31.8,15.7,-100.00,NE,45,0.0,0.0,51,0.00,n/a,n/a,-99.99,Henriksen +1-Wire,2013-06-12 08:40:00,
2013-06-12 04:50:00,31.8,15.7,-100.00,NE,45,0.0,0.0,51,0.00,n/a,n/a,-99.99,Henriksen +1-Wire,2013-06-12 08:50:00,
2013-06-12 05:00:00,31.8,15.7,-100.00,NE,45,0.0,0.0,51,0.00,n/a,n/a,-99.99,Henriksen +1-Wire,2013-06-12 09:00:00,
2013-06-12 05:10:00,31.8,15.7,-100.00,NE,45,0.0,0.0,51,0.00,n/a,n/a,-99.99,Henriksen +1-Wire,2013-06-12 09:10:00,
2013-06-12 05:20:00,31.8,15.7,-100.00,NE,45,0.0,0.0,51,0.00,n/a,n/a,-99.99,Henriksen +1-Wire,2013-06-12 09:20:00,
2013-06-12 05:30:00,31.8,15.7,-100.00,NE,45,0.0,0.0,51,0.00,n/a,n/a,-99.99,Henriksen +1-Wire,2013-06-12 09:30:00,
2013-06-12 05:40:00,31.8,15.7,-100.00,NE,45,0.0,0.0,51,0.00,n/a,n/a,-99.99,Henriksen +1-Wire,2013-06-12 09:40:00,
2013-06-12 05:50:00,31.8,15.7,-100.00,NE,45,0.0,0.0,51,0.00,n/a,n/a,-99.99,Henriksen +1-Wire,2013-06-12 09:50:00,
2013-06-12 06:00:00,31.8,15.7,-100.00,NE,45,0.0,1.0,51,0.00,n/a,n/a,-99.99,Henriksen +1-Wire,2013-06-12 10:00:00,
2013-06-12 06:10:00,31.8,15.7,-100.00,NE,45,0.0,0.0,51,0.00,n/a,n/a,-99.99,Henriksen +1-Wire,2013-06-12 10:10:00,
2013-06-12 06:20:00,31.8,15.7,-100.00,NE,45,0.0,0.0,51,0.00,n/a,n/a,-99.99,Henriksen +1-Wire,2013-06-12 10:20:00,
2013-06-12 06:30:00,31.8,15.7,-100.00,NE,45,0.0,0.0,51,0.00,n/a,n/a,-99.99,Henriksen +1-Wire,2013-06-12 10:30:00,
2013-06-12 06:40:00,31.8,15.7,-100.00,NE,45,0.2,2.9,51,0.00,n/a,n/a,-99.99,Henriksen +1-Wire,2013-06-12 10:40:00,
2013-06-12 06:50:00,31.8,15.7,-100.00,WNW,300,0.0,1.0,51,0.00,n/a,n/a,-99.99,Henriksen +1-Wire,2013-06-12 10:50:00,
2013-06-12 07:00:00,31.8,15.7,-100.00,NE,45,0.4,2.9,51,0.00,n/a,n/a,-99.99,Henriksen +1-Wire,2013-06-12 11:00:00,
2013-06-12 07:10:00,31.8,15.7,-100.00,NE,45,0.1,3.9,51,0.00,n/a,n/a,-99.99,Henriksen +1-Wire,2013-06-12 11:10:00,
2013-06-12 07:20:00,31.8,15.7,-100.00,NE,45,0.2,4.9,51,0.00,n/a,n/a,-99.99,Henriksen +1-Wire,2013-06-12 11:20:00,
2013-06-12 07:30:00,31.8,15.7,-100.00,NE,45,0.0,1.0,51,0.00,n/a,n/a,-99.99,Henriksen +1-Wire,2013-06-12 11:30:00,
2013-06-12 07:40:00,31.8,15.7,-100.00,SSE,165,0.2,2.9,51,0.00,n/a,n/a,-99.99,Henriksen +1-Wire,2013-06-12 11:40:00,
2013-06-12 07:50:00,31.8,15.7,-100.00,SE,142,0.2,3.9,51,0.00,n/a,n/a,-99.99,Henriksen +1-Wire,2013-06-12 11:50:00,
2013-06-12 08:00:00,31.8,15.7,-100.00,SSW,210,0.0,3.8,51,0.00,n/a,n/a,-99.99,Henriksen +1-Wire,2013-06-12 12:00:00,
2013-06-12 08:10:00,31.8,15.7,-100.00,SW,235,0.0,1.9,51,0.00,n/a,n/a,-99.99,Henriksen +1-Wire,2013-06-12 12:10:00,
2013-06-12 08:20:00,31.8,15.7,-100.00,SSW,200,0.1,3.9,51,0.00,n/a,n/a,-99.99,Henriksen +1-Wire,2013-06-12 12:20:00,
2013-06-12 08:30:00,31.8,15.7,-100.00,NE,45,0.1,5.1,51,0.00,n/a,n/a,-99.99,Henriksen +1-Wire,2013-06-12 12:30:00,
2013-06-12 08:40:00,31.8,15.7,-100.00,SW,214,0.1,4.8,51,0.00,n/a,n/a,-99.99,Henriksen +1-Wire,2013-06-12 12:40:00,
2013-06-12 08:50:00,31.8,15.7,-100.00,South,185,0.0,5.8,51,0.00,n/a,n/a,-99.99,Henriksen +1-Wire,2013-06-12 12:50:00,
2013-06-12 09:00:00,31.8,15.7,-100.00,SSW,200,1.1,6.9,51,0.00,n/a,n/a,-99.99,Henriksen +1-Wire,2013-06-12 13:00:00,
2013-06-12 09:10:00,31.8,15.7,-100.00,NE,45,0.3,8.7,51,0.00,n/a,n/a,-99.99,Henriksen +1-Wire,2013-06-12 13:10:00,
2013-06-12 09:20:00,31.8,15.7,-100.00,NE,45,0.1,4.9,51,0.00,n/a,n/a,-99.99,Henriksen +1-Wire,2013-06-12 13:20:00,
2013-06-12 09:30:00,31.8,15.7,-100.00,WSW,247,2.5,6.8,51,0.00,n/a,n/a,-99.99,Henriksen +1-Wire,2013-06-12 13:30:00,
2013-06-12 09:40:00,31.8,15.7,-100.00,NE,45,1.1,6.8,51,0.00,n/a,n/a,-99.99,Henriksen +1-Wire,2013-06-12 13:40:00,
2013-06-12 09:50:00,31.8,15.7,-100.00,NE,45,2.9,7.7,51,0.00,n/a,n/a,-99.99,Henriksen +1-Wire,2013-06-12 13:50:00,
2013-06-12 10:00:00,31.8,15.7,-100.00,NE,45,0.3,7.7,51,0.00,n/a,n/a,-99.99,Henriksen +1-Wire,2013-06-12 14:00:00,
2013-06-12 10:10:00,31.8,15.7,-100.00,NE,45,0.4,9.6,51,0.00,n/a,n/a,-99.99,Henriksen +1-Wire,2013-06-12 14:10:00,
2013-06-12 10:20:00,31.8,15.7,-100.00,NE,45,2.3,9.7,51,0.00,n/a,n/a,-99.99,Henriksen +1-Wire,2013-06-12 14:20:00,
2013-06-12 10:30:00,31.8,15.7,-100.00,WSW,256,1.7,6.8,51,0.00,n/a,n/a,-99.99,Henriksen +1-Wire,2013-06-12 14:30:00,
2013-06-12 10:40:00,31.8,15.7,-100.00,SSW,210,0.5,9.6,51,0.00,n/a,n/a,-99.99,Henriksen +1-Wire,2013-06-12 14:40:00,
2013-06-12 10:50:00,31.8,15.7,-100.00,WSW,242,0.0,2.9,51,0.00,n/a,n/a,-99.99,Henriksen +1-Wire,2013-06-12 14:50:00,
2013-06-12 11:00:00,31.8,15.7,-100.00,NE,45,0.5,5.8,51,0.00,n/a,n/a,-99.99,Henriksen +1-Wire,2013-06-12 15:00:00,
2013-06-12 11:10:00,31.8,15.7,-100.00,West,263,0.3,6.7,51,0.00,n/a,n/a,-99.99,Henriksen +1-Wire,2013-06-12 15:10:00,
2013-06-12 11:20:00,31.8,15.7,-100.00,SW,234,0.1,10.2,51,0.00,n/a,n/a,-99.99,Henriksen +1-Wire,2013-06-12 15:20:00,
2013-06-12 11:30:00,31.8,15.7,-100.00,West,259,1.4,7.1,51,0.00,n/a,n/a,-99.99,Henriksen +1-Wire,2013-06-12 15:30:00,
2013-06-12 11:40:00,31.8,15.7,-100.00,WNW,283,0.3,5.1,51,0.00,n/a,n/a,-99.99,Henriksen +1-Wire,2013-06-12 15:40:00,
2013-06-12 11:50:00,31.8,15.7,-100.00,ESE,117,0.0,2.1,51,0.00,n/a,n/a,-99.99,Henriksen +1-Wire,2013-06-12 15:50:00,
2013-06-12 12:00:00,31.8,15.7,-100.00,WSW,253,3.6,9.3,51,0.00,n/a,n/a,-99.99,Henriksen +1-Wire,2013-06-12 16:00:00,
2013-06-12 12:10:00,31.8,15.7,-100.00,West,274,0.0,8.2,51,0.00,n/a,n/a,-99.99,Henriksen +1-Wire,2013-06-12 16:10:00,
2013-06-12 12:20:00,31.8,15.7,-100.00,SW,233,1.8,8.2,51,0.00,n/a,n/a,-99.99,Henriksen +1-Wire,2013-06-12 16:20:00,
2013-06-12 12:30:00,31.8,15.7,-100.00,West,267,0.2,7.7,51,0.00,n/a,n/a,-99.99,Henriksen +1-Wire,2013-06-12 16:30:00,
2013-06-12 12:40:00,31.8,15.7,-100.00,WSW,258,0.5,6.2,51,0.00,n/a,n/a,-99.99,Henriksen +1-Wire,2013-06-12 16:40:00,
2013-06-12 12:50:00,31.8,15.7,-100.00,SW,222,0.9,8.2,51,0.00,n/a,n/a,-99.99,Henriksen +1-Wire,2013-06-12 16:50:00,
2013-06-12 13:00:00,31.8,15.7,-100.00,ENE,68,0.4,9.3,51,0.00,n/a,n/a,-99.99,Henriksen +1-Wire,2013-06-12 17:00:00,
2013-06-12 13:10:00,31.8,15.7,-100.00,SE,125,0.5,6.2,51,0.00,n/a,n/a,-99.99,Henriksen +1-Wire,2013-06-12 17:10:00,
2013-06-12 13:20:00,31.8,15.7,-100.00,SE,131,0.8,7.3,51,0.00,n/a,n/a,-99.99,Henriksen +1-Wire,2013-06-12 17:20:00,
2013-06-12 13:30:00,31.8,15.7,-100.00,WSW,245,0.2,4.2,51,0.00,n/a,n/a,-99.99,Henriksen +1-Wire,2013-06-12 17:30:00,
2013-06-12 13:40:00,31.8,15.7,-100.00,WNW,291,0.0,4.1,51,0.00,n/a,n/a,-99.99,Henriksen +1-Wire,2013-06-12 17:40:00,
2013-06-12 13:50:00,31.8,15.7,-100.00,East,94,0.0,6.2,51,0.00,n/a,n/a,-99.99,Henriksen +1-Wire,2013-06-12 17:50:00,
2013-06-12 14:00:00,31.8,15.7,-100.00,NW,317,0.0,2.1,51,0.00,n/a,n/a,-99.99,Henriksen +1-Wire,2013-06-12 18:00:00,
2013-06-12 14:10:00,31.8,15.7,-100.00,SW,218,0.0,3.1,51,0.01,n/a,n/a,-99.99,Henriksen +1-Wire,2013-06-12 18:10:00,
2013-06-12 14:20:00,31.8,15.7,-100.00,South,189,0.0,1.4,51,0.02,n/a,n/a,-99.99,Henriksen +1-Wire,2013-06-12 18:20:00,
2013-06-12 14:30:00,31.8,15.7,-100.00,SW,234,0.0,3.1,51,0.02,n/a,n/a,-99.99,Henriksen +1-Wire,2013-06-12 18:30:00,
2013-06-12 14:40:00,31.8,15.7,-100.00,SW,236,0.0,3.1,51,0.02,n/a,n/a,-99.99,Henriksen +1-Wire,2013-06-12 18:40:00,
2013-06-12 14:50:00,31.8,15.7,-100.00,SSW,195,0.0,2.1,51,0.02,n/a,n/a,-99.99,Henriksen +1-Wire,2013-06-12 18:50:00,
2013-06-12 15:00:00,31.8,15.7,-100.00,SW,223,0.0,2.1,51,0.02,n/a,n/a,-99.99,Henriksen +1-Wire,2013-06-12 19:00:00,
2013-06-12 15:10:00,31.8,15.7,-100.00,SW,221,0.0,2.1,51,0.00,n/a,n/a,-99.99,Henriksen +1-Wire,2013-06-12 19:10:00,
2013-06-12 15:20:00,31.8,15.7,-100.00,South,169,0.0,2.1,51,0.00,n/a,n/a,-99.99,Henriksen +1-Wire,2013-06-12 19:20:00,
2013-06-12 15:30:00,31.8,15.7,-100.00,East,99,0.0,2.1,51,0.00,n/a,n/a,-99.99,Henriksen +1-Wire,2013-06-12 19:30:00,
2013-06-12 15:40:00,31.8,15.7,-100.00,ESE,113,0.0,1.0,51,0.00,n/a,n/a,-99.99,Henriksen +1-Wire,2013-06-12 19:40:00,
2013-06-12 15:50:00,31.8,15.7,-100.00,South,179,0.0,1.0,51,0.00,n/a,n/a,-99.99,Henriksen +1-Wire,2013-06-12 19:50:00,
2013-06-12 16:00:00,31.8,15.7,-100.00,WSW,241,0.1,3.1,51,0.00,n/a,n/a,-99.99,Henriksen +1-Wire,2013-06-12 20:00:00,
2013-06-12 16:10:00,31.8,15.7,-100.00,SW,228,0.1,1.0,51,0.00,n/a,n/a,-99.99,Henriksen +1-Wire,2013-06-12 20:10:00,
2013-06-12 16:20:00,31.8,15.7,-100.00,WSW,242,0.4,3.1,51,0.00,n/a,n/a,-99.99,Henriksen +1-Wire,2013-06-12 20:20:00,
2013-06-12 16:30:00,31.8,15.7,-100.00,WSW,245,0.0,2.1,51,0.00,n/a,n/a,-99.99,Henriksen +1-Wire,2013-06-12 20:30:00,
2013-06-12 16:40:00,31.8,15.7,-100.00,SW,231,0.1,4.1,51,0.00,n/a,n/a,-99.99,Henriksen +1-Wire,2013-06-12 20:40:00,
2013-06-12 16:50:00,31.8,15.7,-100.00,SE,134,0.0,2.0,51,0.00,n/a,n/a,-99.99,Henriksen +1-Wire,2013-06-12 20:50:00,
2013-06-12 17:00:00,31.8,15.7,-100.00,SSW,205,0.0,1.0,51,0.00,n/a,n/a,-99.99,Henriksen +1-Wire,2013-06-12 21:00:00,
2013-06-12 17:10:00,31.8,15.7,-100.00,West,266,1.4,8.3,51,0.00,n/a,n/a,-99.99,Henriksen +1-Wire,2013-06-12 21:10:00,
2013-06-12 17:20:00,31.8,15.7,-100.00,WSW,244,0.0,6.2,51,0.00,n/a,n/a,-99.99,Henriksen +1-Wire,2013-06-12 21:20:00,
2013-06-12 17:30:00,31.8,15.7,-100.00,SSW,200,0.2,3.9,51,0.00,n/a,n/a,-99.99,Henriksen +1-Wire,2013-06-12 21:30:00,
2013-06-12 17:40:00,31.8,15.7,-100.00,WSW,245,0.3,7.2,51,0.00,n/a,n/a,-99.99,Henriksen +1-Wire,2013-06-12 21:40:00,
2013-06-12 17:50:00,31.8,15.7,-100.00,ENE,68,0.8,3.1,51,0.00,n/a,n/a,-99.99,Henriksen +1-Wire,2013-06-12 21:50:00,
2013-06-12 18:00:00,31.8,15.7,-100.00,WSW,250,0.0,1.0,51,0.00,n/a,n/a,-99.99,Henriksen +1-Wire,2013-06-12 22:00:00,
2013-06-12 18:10:00,31.8,15.7,-100.00,WSW,247,0.0,0.0,51,0.00,n/a,n/a,-99.99,Henriksen +1-Wire,2013-06-12 22:10:00,
2013-06-12 18:20:00,31.8,15.7,-100.00,WSW,247,0.0,1.0,51,0.00,n/a,n/a,-99.99,Henriksen +1-Wire,2013-06-12 22:20:00,
2013-06-12 18:30:00,31.8,15.7,-100.00,WSW,244,0.0,1.0,51,0.00,n/a,n/a,-99.99,Henriksen +1-Wire,2013-06-12 22:30:00,
2013-06-12 18:40:00,31.8,15.7,-100.00,WSW,237,0.0,2.1,51,0.00,n/a,n/a,-99.99,Henriksen +1-Wire,2013-06-12 22:40:00,
2013-06-12 18:50:00,31.8,15.7,-100.00,WSW,238,0.0,0.0,51,0.00,n/a,n/a,-99.99,Henriksen +1-Wire,2013-06-12 22:50:00,
2013-06-12 19:00:00,31.8,15.7,-100.00,SW,224,0.0,0.0,51,0.00,n/a,n/a,-99.99,Henriksen +1-Wire,2013-06-12 23:00:00,
2013-06-12 19:10:00,31.8,15.7,-100.00,SW,224,0.0,0.0,51,0.00,n/a,n/a,-99.99,Henriksen +1-Wire,2013-06-12 23:10:00,
2013-06-12 19:20:00,31.8,15.7,-100.00,SW,227,0.1,1.0,51,0.00,n/a,n/a,-99.99,Henriksen +1-Wire,2013-06-12 23:20:00,
2013-06-12 19:30:00,31.8,15.7,-100.00,SW,231,0.0,4.1,51,0.00,n/a,n/a,-99.99,Henriksen +1-Wire,2013-06-12 23:30:00,
2013-06-12 19:40:00,31.8,15.7,-100.00,SW,224,0.0,0.0,51,0.00,n/a,n/a,-99.99,Henriksen +1-Wire,2013-06-12 23:40:00,
2013-06-12 19:50:00,31.8,15.7,-100.00,SW,224,0.0,1.0,51,0.00,n/a,n/a,-99.99,Henriksen +1-Wire,2013-06-12 23:50:00,
2013-06-12 20:00:00,31.8,15.7,-100.00,SW,224,0.0,0.0,51,0.00,n/a,n/a,-99.99,Henriksen +1-Wire,2013-06-13 00:00:00,
2013-06-12 20:10:00,31.8,15.7,-100.00,SW,224,0.0,0.0,51,0.00,n/a,n/a,-99.99,Henriksen +1-Wire,2013-06-13 00:10:00,
2013-06-12 20:20:00,31.8,15.7,-100.00,SW,224,0.0,0.0,51,0.00,n/a,n/a,-99.99,Henriksen +1-Wire,2013-06-13 00:20:00,
2013-06-12 20:30:00,31.8,15.7,-100.00,SW,224,0.0,0.0,51,0.00,n/a,n/a,-99.99,Henriksen +1-Wire,2013-06-13 00:30:00,
2013-06-12 20:40:00,31.8,15.7,-100.00,SW,224,0.0,0.0,51,0.00,n/a,n/a,-99.99,Henriksen +1-Wire,2013-06-13 00:40:00,
2013-06-12 20:50:00,31.8,15.7,-100.00,SW,224,0.0,0.0,51,0.00,n/a,n/a,-99.99,Henriksen +1-Wire,2013-06-13 00:50:00,
2013-06-12 21:00:00,31.8,15.7,-100.00,SW,224,0.0,0.0,51,0.00,n/a,n/a,-99.99,Henriksen +1-Wire,2013-06-13 01:00:00,
2013-06-12 21:10:00,31.8,15.7,-100.00,SW,224,0.0,0.0,51,0.00,n/a,n/a,-99.99,Henriksen +1-Wire,2013-06-13 01:10:00,
2013-06-12 21:20:00,31.8,15.7,-100.00,SW,224,0.0,0.0,51,0.00,n/a,n/a,-99.99,Henriksen +1-Wire,2013-06-13 01:20:00,
2013-06-12 21:30:00,31.8,15.7,-100.00,SW,224,0.0,0.0,51,0.00,n/a,n/a,-99.99,Henriksen +1-Wire,2013-06-13 01:30:00,
2013-06-12 21:40:00,31.8,15.7,-100.00,SW,224,0.0,1.0,51,0.00,n/a,n/a,-99.99,Henriksen +1-Wire,2013-06-13 01:40:00,
2013-06-12 21:50:00,31.8,15.7,-100.00,SW,224,0.0,0.0,51,0.00,n/a,n/a,-99.99,Henriksen +1-Wire,2013-06-13 01:50:00,
2013-06-12 22:00:00,31.8,15.7,-100.00,SW,224,0.0,0.0,51,0.00,n/a,n/a,-99.99,Henriksen +1-Wire,2013-06-13 02:00:00,
2013-06-12 22:10:00,31.8,15.7,-100.00,SW,224,0.0,1.0,51,0.00,n/a,n/a,-99.99,Henriksen +1-Wire,2013-06-13 02:10:00,
2013-06-12 22:20:00,31.8,15.7,-100.00,SW,224,0.0,3.1,51,0.00,n/a,n/a,-99.99,Henriksen +1-Wire,2013-06-13 02:20:00,
2013-06-12 22:30:00,31.8,15.7,-100.00,NE,45,0.0,0.0,51,0.00,n/a,n/a,-99.99,Henriksen +1-Wire,2013-06-13 02:30:00,
2013-06-12 22:40:00,31.8,15.7,-100.00,NE,45,0.0,1.0,51,0.00,n/a,n/a,-99.99,Henriksen +1-Wire,2013-06-13 02:40:00,
2013-06-12 22:50:00,31.8,15.7,-100.00,NE,45,0.0,0.0,51,0.00,n/a,n/a,-99.99,Henriksen +1-Wire,2013-06-13 02:50:00,
2013-06-12 23:00:00,31.8,15.7,-100.00,NE,45,0.0,1.0,51,0.00,n/a,n/a,-99.99,Henriksen +1-Wire,2013-06-13 03:00:00,
2013-06-12 23:10:00,31.8,15.7,-100.00,WSW,246,0.0,4.2,51,0.00,n/a,n/a,-99.99,Henriksen +1-Wire,2013-06-13 03:10:00,
2013-06-12 23:20:00,31.8,15.7,-100.00,WSW,247,0.0,2.0,51,0.00,n/a,n/a,-99.99,Henriksen +1-Wire,2013-06-13 03:20:00,
2013-06-12 23:30:00,31.8,15.7,-100.00,WSW,247,0.0,0.0,51,0.00,n/a,n/a,-99.99,Henriksen +1-Wire,2013-06-13 03:30:00,
2013-06-12 23:40:00,31.8,15.7,-100.00,WSW,247,0.0,1.0,51,0.00,n/a,n/a,-99.99,Henriksen +1-Wire,2013-06-13 03:40:00,
2013-06-12 23:50:00,31.8,15.7,-100.00,WSW,246,0.0,2.1,51,0.00,n/a,n/a,-99.99,Henriksen +1-Wire,2013-06-13 03:50:00,